#timestamp,LO_Frequency,Hit 
1498190415.2,286046996.5,N
1498190435.0,286046998.7,N
1498190436.0,286046998.7,N
1498190455.8,286046998.6,N
1498190475.6,286046998.1,N
1498190495.4,286047000.8,N
1498190515.3,286046998.8,N
1498190535.1,286046996.8,N
1498190555.8,286046997.6,N
1498190575.7,286046997.4,N
1498190595.5,286046996.5,N
1498190615.3,286046999.0,N
1498190635.2,286046999.5,N
1498190655.9,286046997.4,N
1498190675.7,286046997.8,N
1498190695.6,286046997.7,N
1498190715.4,286046997.2,N
1498190735.2,286046996.9,N
1498190755.0,286046998.4,N
1498190755.9,286046998.4,N
1498190775.8,286046998.6,N
1498190795.6,286047000.9,N
1498190815.4,286047000.9,N
1498190835.3,286047000.5,N
1498190855.1,286047000.4,N
1498190875.8,286047000.6,N
1498190895.7,286046998.7,N
1498190915.5,286046997.0,N
1498190935.3,286046998.3,N
1498190955.2,286046996.9,N
1498190975.9,286046998.0,N
1498190995.7,286046997.5,N
1498191015.6,286046995.5,N
1498191035.4,286046995.3,N
1498191055.2,286046997.2,N
1498191075.0,286046999.2,N
1498191075.9,286046999.2,N
1498191095.8,286046996.6,N
1498191115.6,286046994.9,N
1498191135.4,286046998.0,N
1498191155.3,286046995.5,N
1498191175.1,286046994.9,N
1498191195.8,286046995.5,N
1498191215.7,286046995.2,N
1498191235.5,286046997.5,N
1498191255.3,286046995.6,N
1498191275.2,286046995.3,N
1498191295.9,286046996.3,N
1498191315.7,286046993.8,N
1498191335.6,286046995.8,N
1498191355.4,286046993.7,N
1498191375.2,286046993.3,N
1498191395.0,286046993.3,N
1498191395.9,286046993.3,N
1498191415.8,286046995.2,N
1498191435.6,286046996.1,N
1498191455.4,286046993.9,N
1498191475.3,286046996.2,N
1498191495.1,286046995.3,N
1498191515.8,286046996.0,N
1498191535.7,286046993.5,N
1498191555.5,286046994.0,N
1498191575.3,286046995.5,N
1498191595.2,286046995.3,N
1498191615.9,286046998.0,N
1498191635.7,286046997.2,N
1498191655.5,286046996.6,N
1498191675.4,286046998.5,N
1498191695.2,286046999.0,N
1498191715.0,286046996.5,N
1498191715.9,286046996.5,N
1498191735.8,286046999.0,N
1498191755.6,286046998.4,N
1498191775.4,286046998.8,N
1498191795.3,286047000.7,N
1498191815.1,286047001.1,N
1498191816.0,286047001.1,N
1498191835.8,286046997.0,N
1498191855.7,286046996.3,N
1498191875.5,286046995.3,N
1498191895.3,286046997.9,N
1498191915.2,286046995.0,N
1498191935.9,286046995.0,N
1498191955.7,286046997.5,N
1498191975.5,286046998.0,N
1498191995.4,286046996.1,N
1498192015.2,286046993.4,N
1498192035.0,286046997.5,N
1498192035.9,286046997.5,N
1498192055.8,286046997.5,N
1498192075.6,286046998.4,N
1498192095.4,286046998.5,N
1498192115.3,286046999.3,N
1498192135.1,286046997.1,N
1498192136.0,286046997.1,N
1498192155.8,286046997.2,N
1498192175.7,286046995.6,N
1498192195.5,286046997.5,N
1498192215.3,286046997.7,N
1498192235.2,286046997.3,N
1498192255.9,286046999.2,N
1498192275.7,286046998.7,N
1498192295.5,286046999.3,N
1498192315.4,286047001.0,N
1498192335.2,286046998.9,N
1498192355.0,286046998.3,N
1498192355.9,286046998.3,N
1498192375.8,286046998.6,N
1498192395.6,286047000.7,N
1498192415.4,286046999.4,N
1498192435.3,286046998.7,N
1498192455.1,286046998.7,N
1498192456.0,286046998.7,N
1498192475.8,286046996.9,N
1498192495.7,286046998.4,N
1498192515.5,286047000.8,N
1498192535.3,286046998.2,N
1498192555.2,286047000.4,N
1498192575.9,286047002.4,N
1498192595.7,286047001.6,N
1498192615.5,286047002.0,N
1498192635.4,286047001.8,N
1498192655.2,286047002.4,N
1498192675.0,286047002.5,N
1498192675.9,286047002.5,N
1498192695.8,286047000.1,N
1498192715.6,286047000.2,N
1498192735.4,286047000.0,N
1498192755.3,286047000.3,N
1498192775.1,286047001.1,N
1498192776.0,286047001.1,N
1498192795.8,286047000.3,N
1498192815.7,286047001.0,N
1498192835.5,286047002.7,N
1498192855.3,286047002.3,N
1498192875.1,286047002.8,N
1498192895.9,286047000.9,N
1498192915.7,286047001.5,N
1498192935.5,286047003.9,N
1498192955.4,286047003.6,N
1498192975.2,286047001.9,N
1498192995.0,286047002.1,N
1498192995.9,286047002.1,N
1498193015.8,286047002.8,N
1498193035.6,286047000.0,N
1498193055.4,286047000.1,N
1498193075.3,286047002.8,N
1498193095.1,286047000.9,N
1498193096.0,286047000.9,N
1498193115.8,286047000.4,N
1498193135.7,286047000.9,N
1498193155.5,286046998.1,N
1498193175.3,286046999.8,N
1498193195.1,286047002.7,N
1498193215.9,286047000.6,N
1498193235.7,286047000.7,N
1498193255.5,286046998.3,N
1498193275.4,286046998.8,N
1498193295.2,286046998.1,N
1498193315.0,286046998.7,N
1498193315.9,286046998.7,N
1498193335.8,286047001.2,N
1498193355.6,286047001.1,N
1498193375.4,286046999.3,N
1498193395.3,286046997.0,N
1498193415.1,286046996.9,N
1498193416.0,286046996.9,N
1498193435.8,286046998.1,N
1498193455.7,286046998.6,N
1498193475.5,286046999.9,N
1498193495.3,286047001.2,N
1498193515.1,286046998.2,N
1498193535.9,286047000.3,N
1498193555.7,286046999.8,N
1498193575.5,286046999.9,N
1498193595.4,286047003.6,N
1498193615.2,286047003.6,N
1498193635.0,286047003.6,N
1498193635.9,286047003.6,N
1498193655.8,286047005.3,N
1498193675.6,286047004.8,N
1498193695.4,286047003.2,N
1498193715.3,286047002.9,N
1498193735.1,286047003.5,N
1498193736.0,286047003.5,N
1498193755.8,286047003.0,N
1498193775.6,286047003.2,N
1498193795.5,286047004.4,N
1498193815.3,286047001.7,N
1498193835.1,286047002.2,N
1498193855.9,286047001.8,N
1498193875.7,286047001.7,N
1498193895.5,286047003.8,N
1498193915.4,286047003.9,N
1498193935.2,286047003.2,N
1498193955.0,286047002.7,N
1498193955.9,286047002.7,N
1498193975.8,286047002.2,N
1498193995.6,286047002.1,N
